Date String (YYYY-MM-DD hh:mm:ss) UTC,Instrument flags,absolute air pressure of the measurement (hPa),sample flow rate (lpm),inlet stack bypass flow (lpm),air temperature of the measurement (°C),ambient temperature measured by the external sensor (°C),aerosol sample conditioner tube jacket temperature (°C),OPC LED temperature (°C),internal box temperature (°C),relative humidity of the measurement (%),span deviation,mass concentration of particles derived from Lorenz-Mie calculation of OPC scattering (μg/m³),mass concentration of particles derived from Lorenz-Mie calculation of OPC scattering (μg/m³),mass concentration of particles derived from Lorenz-Mie calculation of OPC scattering (μg/m³)
DateTimeUTC,F1_M11,P_M11,Q1_M11,Q2_M11,T1_M11,T2_M11,T3_M11,T4_M11,T5_M11,U1_M11,ZSPAN_M11,X2_M11,X0_M11,X1_M11
2023-07-04 21:00:00,SystemResetWarning,0832.1,5.00,000.00,029.1,026.6,000.0,037.5,030.4,32.3,0000.0,0004.26,0010.47,0003.68
2023-07-04 21:01:00,SystemResetWarning,0832.1,5.01,000.00,029.1,027.0,000.0,037.5,030.6,30.1,0000.0,0004.26,0011.17,0003.69
2023-07-04 21:02:00,SystemResetWarning,0832.1,5.01,000.00,029.2,027.3,000.0,037.5,030.6,31.9,0000.0,0004.27,0011.63,0003.70
2023-07-04 21:03:00,SystemResetWarning,0832.2,4.99,000.00,029.2,027.5,000.0,037.5,030.7,30.1,0000.0,0004.25,0011.16,0003.71
2023-07-04 21:04:00,SystemResetWarning,0832.2,4.99,000.00,029.2,027.8,000.0,037.5,030.8,30.5,0000.0,0004.25,0010.87,0003.73
2023-07-04 21:05:00,SystemResetWarning,0832.2,5.00,000.00,029.3,027.6,000.0,037.5,030.8,30.2,0000.0,0004.24,0010.10,0003.74
2023-07-04 21:06:00,SystemResetWarning,0832.2,4.99,000.00,029.3,026.1,000.0,037.4,030.6,29.3,0000.0,0004.26,0009.20,0003.75
2023-07-04 21:07:00,SystemResetWarning,0832.2,5.01,000.00,029.2,024.9,000.0,037.3,030.4,30.6,0000.0,0004.32,0009.26,0003.76
2023-07-04 21:08:00,SystemResetWarning,0832.2,5.01,000.00,029.1,024.8,000.0,037.3,030.2,32.1,0000.0,0004.33,0009.88,0003.78
2023-07-04 21:09:00,SystemResetWarning,0832.2,5.00,000.00,029.0,025.1,000.0,037.3,030.1,29.6,0000.0,0004.34,0010.24,0003.79
2023-07-04 21:10:00,SystemResetWarning,0832.2,5.00,000.00,029.0,025.6,000.0,037.4,030.2,30.1,0000.0,0004.36,0010.90,0003.80
2023-07-04 21:11:00,SystemResetWarning,0832.2,5.00,000.00,028.9,026.1,000.0,037.4,030.3,30.2,0000.0,0004.40,0011.68,0003.81
2023-07-04 21:12:00,SystemResetWarning,0832.2,5.00,000.00,029.0,026.5,000.0,037.4,030.4,30.3,0000.0,0004.39,0011.32,0003.81
2023-07-04 21:13:00,SystemResetWarning,0832.2,4.99,000.00,029.0,026.9,000.0,037.4,030.5,29.7,0000.0,0004.41,0011.17,0003.82
2023-07-04 21:14:00,SystemResetWarning,0832.2,5.00,000.00,029.0,027.2,000.0,037.4,030.6,30.1,0000.0,0004.44,0011.46,0003.82
2023-07-04 21:15:00,SystemResetWarning,0832.2,4.99,000.00,029.1,027.5,000.0,037.5,030.7,30.1,0000.0,0004.45,0011.53,0003.82
2023-07-04 21:16:00,SystemResetWarning,0832.2,5.00,000.00,029.1,027.7,000.0,037.5,030.7,30.0,0000.0,0004.48,0011.57,0003.82
2023-07-04 21:17:00,SystemResetWarning,0832.2,4.98,000.00,029.2,027.3,000.0,037.4,030.8,30.1,0000.0,0004.49,0012.85,0003.82
2023-07-04 21:18:00,SystemResetWarning,0832.2,5.00,000.00,029.1,025.6,000.0,037.3,030.5,29.1,0000.0,0004.46,0013.48,0003.81
2023-07-04 21:19:00,SystemResetWarning,0832.2,5.01,000.00,029.0,024.7,000.0,037.2,030.2,30.8,0000.0,0004.45,0013.22,0003.81
2023-07-04 21:20:00,SystemResetWarning,0832.3,5.01,000.00,028.9,024.8,000.0,037.2,030.1,31.2,0000.0,0004.46,0012.66,0003.82
2023-07-04 21:21:00,SystemResetWarning,0832.3,5.01,000.00,028.8,025.2,000.0,037.3,030.1,31.6,0000.0,0004.43,0012.31,0003.81
2023-07-04 21:22:00,SystemResetWarning,0832.4,4.99,000.00,028.8,025.7,000.0,037.3,030.2,29.7,0000.0,0004.39,0011.94,0003.81
2023-07-04 21:23:00,SystemResetWarning,0832.3,4.99,000.00,028.8,026.1,000.0,037.3,030.3,29.8,0000.0,0004.39,0011.07,0003.82
2023-07-04 21:24:00,SystemResetWarning,0832.3,5.00,000.00,028.9,026.6,000.0,037.3,030.4,30.2,0000.0,0004.39,0011.25,0003.83
2023-07-04 21:25:00,SystemResetWarning,0832.3,5.01,000.00,028.9,026.9,000.0,037.3,030.5,29.6,0000.0,0004.43,0011.83,0003.84
2023-07-04 21:26:00,SystemResetWarning,0832.3,4.99,000.00,028.9,027.2,000.0,037.3,030.6,29.1,0000.0,0004.44,0011.92,0003.85
2023-07-04 21:27:00,SystemResetWarning,0832.3,5.00,000.00,029.0,027.5,000.0,037.4,030.6,29.4,0000.0,0004.43,0012.48,0003.85
2023-07-04 21:28:00,SystemResetWarning,0832.3,4.99,000.00,029.0,027.7,000.0,037.4,030.7,29.3,0000.0,0004.44,0011.85,0003.88
2023-07-04 21:29:00,SystemResetWarning,0832.3,5.00,000.00,029.1,027.6,000.0,037.4,030.8,29.7,0000.0,0004.45,0011.12,0003.90
2023-07-04 21:30:00,SystemResetWarning,0832.3,4.99,000.00,029.1,026.1,000.0,037.3,030.5,30.3,0000.0,0004.49,0011.19,0003.92
2023-07-04 21:31:00,SystemResetWarning,0832.3,5.00,000.00,029.0,024.9,000.0,037.2,030.3,29.5,0000.0,0004.53,0011.93,0003.94
2023-07-04 21:32:00,SystemResetWarning,0832.3,5.00,000.00,028.9,024.8,000.0,037.1,030.1,30.7,0000.0,0004.61,0012.69,0003.97
2023-07-04 21:33:00,SystemResetWarning,0832.2,5.01,000.00,028.8,025.1,000.0,037.2,030.0,29.9,0000.0,0004.64,0012.72,0003.98
2023-07-04 21:34:00,SystemResetWarning,0832.2,5.00,000.00,028.8,025.6,000.0,037.2,030.1,31.0,0000.0,0004.67,0012.85,0004.00
2023-07-04 21:35:00,SystemResetWarning,0832.2,5.00,000.00,028.8,026.1,000.0,037.2,030.2,32.3,0000.0,0004.71,0012.74,0004.02
2023-07-04 21:36:00,SystemResetWarning,0832.2,5.01,000.00,028.8,026.5,000.0,037.2,030.3,32.1,0000.0,0004.70,0012.11,0004.03
2023-07-04 21:37:00,SystemResetWarning,0832.3,5.00,000.00,028.8,026.9,000.0,037.3,030.4,32.4,0000.0,0004.71,0012.51,0004.05
2023-07-04 21:38:00,SystemResetWarning,0832.3,4.99,000.00,028.9,027.2,000.0,037.3,030.5,32.7,0000.0,0004.72,0012.37,0004.06
2023-07-04 21:39:00,SystemResetWarning,0832.3,5.00,000.00,028.9,027.5,000.0,037.3,030.6,32.1,0000.0,0004.74,0012.65,0004.06
2023-07-04 21:40:00,SystemResetWarning,0832.3,5.01,000.00,029.0,027.7,000.0,037.3,030.7,31.6,0000.0,0004.79,0013.74,0004.06
2023-07-04 21:41:00,SystemResetWarning,0832.3,5.00,000.00,029.0,027.3,000.0,037.3,030.7,32.4,0000.0,0004.80,0013.99,0004.06
2023-07-04 21:42:00,SystemResetWarning,0832.2,4.99,000.00,029.0,025.6,000.0,037.2,030.4,31.7,0000.0,0004.80,0013.77,0004.06
2023-07-04 21:43:00,SystemResetWarning,0832.2,5.02,000.00,028.9,024.7,000.0,037.1,030.2,32.6,0000.0,0004.81,0012.69,0004.05
2023-07-04 21:44:00,SystemResetWarning,0832.0,5.00,000.00,028.8,024.8,000.0,037.1,030.0,32.0,0000.0,0004.85,0013.02,0004.06
2023-07-04 21:45:00,SystemResetWarning,0832.0,4.99,000.00,028.7,025.2,000.0,037.1,030.0,32.7,0000.0,0004.87,0013.44,0004.07
2023-07-04 21:46:00,SystemResetWarning,0832.1,5.00,000.00,028.7,025.7,000.0,037.1,030.1,33.1,0000.0,0004.86,0013.73,0004.08
2023-07-04 21:47:00,SystemResetWarning,0832.1,4.98,000.00,028.7,026.2,000.0,037.2,030.3,34.0,0000.0,0004.83,0013.35,0004.08
2023-07-04 21:48:00,SystemResetWarning,0832.2,5.00,000.00,028.8,026.6,000.0,037.2,030.4,32.3,0000.0,0004.85,0013.01,0004.08
2023-07-04 21:49:00,SystemResetWarning,0832.2,5.00,000.00,028.9,026.9,000.0,037.2,030.5,32.7,0000.0,0004.90,0012.81,0004.08
2023-07-04 21:50:00,SystemResetWarning,0832.2,5.00,000.00,028.9,027.2,000.0,037.2,030.5,32.8,0000.0,0004.98,0012.59,0004.11
2023-07-04 21:51:00,SystemResetWarning,0832.2,5.01,000.00,029.0,027.5,000.0,037.3,030.6,33.1,0000.0,0005.02,0012.10,0004.14
2023-07-04 21:52:00,SystemResetWarning,0832.2,4.98,000.00,029.0,027.7,000.0,037.3,030.7,34.7,0000.0,0005.02,0012.07,0004.16
2023-07-04 21:53:00,SystemResetWarning,0832.2,5.03,000.00,029.2,027.6,000.0,037.3,030.8,34.5,0000.0,0005.03,0012.33,0004.19
2023-07-04 21:54:00,SystemResetWarning,0832.2,4.97,000.00,029.3,026.1,000.0,037.2,030.6,32.1,0000.0,0005.02,0013.03,0004.21
2023-07-04 21:55:00,SystemResetWarning,0832.2,5.01,000.00,029.3,025.0,000.0,037.1,030.4,32.5,0000.0,0005.05,0012.66,0004.25
2023-07-04 21:56:00,SystemResetWarning,0832.2,5.01,000.00,029.3,024.9,000.0,037.1,030.3,32.0,0000.0,0005.04,0012.25,0004.27
2023-07-04 21:57:00,SystemResetWarning,0832.2,5.00,000.00,029.2,025.2,000.0,037.2,030.2,32.1,0000.0,0005.06,0012.14,0004.29
2023-07-04 21:58:00,SystemResetWarning,0832.2,5.01,000.00,029.2,025.7,000.0,037.3,030.2,31.5,0000.0,0005.16,0012.50,0004.32
2023-07-04 21:59:00,SystemResetWarning,0832.1,4.98,000.00,029.2,026.1,000.0,037.3,030.3,30.4,0000.0,0005.18,0013.14,0004.36
